Weather History for Port Weller, ON

Change the Weather History Date:

Wednesday, November 21, 2012

  Actual Average Record
Temperature  
Mean Temperature 40 °F -  
Max Temperature 45 °F - - ()
Min Temperature 36 °F - - ()
Degree Days  
Heating Degree Days 24    
Moisture  
Dew Point 39 °F    
Average Humidity 93    
Maximum Humidity 100    
Minimum Humidity 80    
Precipitation  
Precipitation 0.00 in - - ()
Sea Level Pressure  
Sea Level Pressure 30.21 in    
Wind  
Wind Speed 2 mph ()    
Max Wind Speed 6 mph    
Max Gust Speed -    
T = Trace of Precipitation, MM = Missing Value Source: Averaged Metar Reports

Daily Weather History Graph

Daily Weather History Graph

Search for Another Location

Airport:

Trip Planner

Search our weather history database for the weather conditions in past years. The results will help you decide how hot, cold, wet, or windy it might be!

Date:

Astronomy

Nov. 21, 2012 Rise Set
Actual Time 7:18 AM EST 4:47 PM EST
Civil Twilight 6:46 AM EST 5:18 PM EST
Nautical Twilight 6:11 AM EST 5:53 PM EST
Astronomical Twilight 5:37 AM EST 6:27 PM EST
Moon 1:12 PM EST (11/21) 12:24 AM EST (11/21)
Length of Visible Light 10h 31m
Length of Day
9h 29m
First Quarter, 61% of the Moon is Illuminated
Nov 21
First Quarter
Nov 28
Full
Dec 6
Last Quarter
Dec 13
New
Dec 20
First Quarter

Hourly Weather History & Observations

Time (EST) Temp. Windchill Dew Point Humidity Pressure Visibility Wind Dir Wind Speed Gust Speed Precip Events Conditions
12:00 AM 40.1 °F - 38.1 °F 93% 30.17 in - Calm Calm - N/A   Unknown
1:00 AM 41 °F - 39 °F 88% 30.17 in - East 1.2 mph - -  
1:00 AM 40.6 °F - 38.7 °F 93% 30.17 in - East 1.2 mph - N/A   Unknown
2:00 AM 39.6 °F - 38.1 °F 95% 30.17 in - South 2.3 mph - N/A   Unknown
3:00 AM 38.3 °F - 37.2 °F 96% 30.19 in - SW 1.2 mph - N/A   Unknown
4:00 AM 38 °F - 37 °F 96% 30.19 in - South 2.3 mph - -  
4:00 AM 38.1 °F - 37.2 °F 97% 30.19 in - South 2.3 mph - N/A   Unknown
5:00 AM 36.1 °F - 35.4 °F 97% 30.20 in - WSW 1.2 mph - N/A   Unknown
6:00 AM 37.0 °F - 36.3 °F 97% 30.22 in - SSW 1.2 mph - N/A   Unknown
7:00 AM 38 °F - 38 °F 100% 30.24 in - South 1.2 mph - -  
7:00 AM 38.5 °F - 37.9 °F 98% 30.24 in - South 1.2 mph - N/A   Unknown
8:00 AM 40.6 °F 38.6 °F 40.1 °F 98% 30.25 in - SE 3.5 mph - N/A   Unknown
9:00 AM 40.3 °F - 39.7 °F 98% 30.25 in - SSE 2.3 mph - N/A   Unknown
10:00 AM 40 °F - 39 °F 97% 30.26 in - ESE 1.2 mph - -  
10:00 AM 39.9 °F - 39.4 °F 98% 30.26 in - ESE 1.2 mph - N/A   Unknown
11:00 AM 39.9 °F - 39.6 °F 99% 30.25 in - West 2.3 mph - N/A   Unknown
12:00 PM 41.0 °F 39.0 °F 40.6 °F 99% 30.23 in - West 3.5 mph - N/A   Unknown
1:00 PM 43 °F - 42 °F 96% 30.23 in - NW 5.8 mph - -  
1:00 PM 42.6 °F 39.0 °F 42.3 °F 99% 30.23 in - NW 5.8 mph - N/A   Unknown
2:00 PM 44.4 °F 41.2 °F 42.3 °F 92% 30.23 in - NNW 5.8 mph - N/A   Unknown
3:00 PM 44.1 °F 42.5 °F 40.6 °F 88% 30.22 in - East 3.5 mph - N/A   Unknown
4:00 PM 44 °F - 41 °F 83% 30.21 in - East 2.3 mph - -  
4:00 PM 43.7 °F - 40.6 °F 89% 30.21 in - East 2.3 mph - N/A   Unknown
5:00 PM 44.1 °F 42.5 °F 41.7 °F 91% 30.21 in - East 3.5 mph - N/A   Unknown
6:00 PM 43.5 °F 41.9 °F 41.0 °F 91% 30.21 in - SE 3.5 mph - N/A   Unknown
7:00 PM 43 °F - 41 °F 88% 30.20 in - SE 3.5 mph - -  
7:00 PM 42.8 °F 41.1 °F 40.6 °F 92% 30.20 in - SE 3.5 mph - N/A   Unknown
8:00 PM 42.3 °F - 40.5 °F 93% 30.22 in - South 2.3 mph - N/A   Unknown
9:00 PM 42.3 °F 40.5 °F 39.0 °F 88% 30.20 in - SSE 3.5 mph - N/A   Unknown
10:00 PM 43 °F - 39 °F 80% 30.20 in - SSW 4.6 mph - -  
10:00 PM 42.6 °F 39.9 °F 38.8 °F 86% 30.20 in - SSW 4.6 mph - N/A   Unknown
11:00 PM 43.0 °F 40.3 °F 40.5 °F 91% 30.19 in - South 4.6 mph - N/A   Unknown